Regional Weather Roundup
Issued by NWS

Home | Current Version | Previous Version | Graphics & Text | Print | Product List | Glossary On
Versions: 1 2 3 4 5 6 7 8 9 10 11 12 13 14 15 16 17 18 19 20 21 22 23 24 25 26 27 28 29 30 31 32 33 34 35 36 37 38 39 40 41 42 43 44 45 46 47 48 49 50
000
ASUS43 KMPX 151810
RWRMN
WEATHER ROUNDUP FOR MINNESOTA
NATIONAL WEATHER SERVICE TWIN CITIES/CHANHASSEN MN
1200 PM CST FRI DEC 15 2017


NOTE: "FAIR" INDICATES FEW OR NO CLOUDS BELOW 12,000 FEET WITH NO
SIGNIFICANT WEATHER AND/OR OBSTRUCTIONS TO VISIBILITY. N/A MEANS
CURRENT SKY AND/OR WEATHER CONDITIONS ARE NOT AVAILABLE.

MNZ060>063-068>070-151900-
   Twin Cities Metro

CITY           SKY/WX    TMP DP  RH WIND       PRES   REMARKS
TWIN CITIES    CLOUDY    25  19  78 VRB5      29.86F WCI  19
6HR MIN TEMP:  22; 6HR MAX TEMP:  26;

ST PAUL        CLOUDY    23  16  74 NW5       29.88F WCI  17
CRYSTAL        CLOUDY    22  13  68 CALM      29.85F
BLAINE         PTSUNNY   23  16  74 CALM      29.86F
LAKEVILLE        N/A     27  21  80 W3        29.85F
EDEN PRAIRIE   CLOUDY    27  20  75 NW5       29.85F WCI  22
6HR MIN TEMP:  21; 6HR MAX TEMP:  27;

SOUTH ST PAUL  CLOUDY    25  18  74 N6        29.86F WCI  18
LAKE ELMO      FAIR      23  16  74 CALM      29.87F
$$
MNZ001>005-007-008-013>017-022>024-027-028-151900-
   Northwest Minnesota

CITY           SKY/WX    TMP DP  RH WIND       PRES   REMARKS
BEMIDJI        CLOUDY    11   6  81 SW3       29.79F
HALLOCK        FLURRIES  16  12  86 SE13      29.76F WCI   2
ROSEAU         CLOUDY    10   7  85 SE6       29.79F WCI   1
WARROAD        PTSUNNY    9   5  85 S3        29.79F
THIEF RVR FALL CLOUDY    15  11  83 SE10      29.78F WCI   2
CROOKSTON      CLOUDY    18  16  93 S10       29.79F WCI   6
FOSSTON        CLOUDY    14  10  85 SE5       29.78F WCI   6
DETROIT LAKES  CLOUDY    21  18  86 SE7       29.79F WCI  13
MOORHEAD       CLOUDY    21  18  86 S9        29.79F WCI  11
PARK RAPIDS    CLOUDY    14   9  80 CALM      29.79F
MAHNOMEN       CLOUDY    17  13  86 S5        29.78F WCI  10
$$
MNZ006-009>011-018-025>026-151900-
   North Central Minnesota

CITY           SKY/WX    TMP DP  RH WIND       PRES   REMARKS
BAUDETTE       CLOUDY     7   3  84 S3        29.78F
FLAG ISLAND    CLOUDY     7   3  85 SE5       29.77F WCI  -2
INTL FALLS     CLOUDY     7   1  76 CALM      29.80F
6HR MIN TEMP:   5; 6HR MAX TEMP:   8;

WASKISH        FLURRIES  10   7  85 SW3       29.80F
BIG FORK       CLOUDY    10   3  72 SW3       29.79F
LONGVILLE      CLOUDY    12   7  79 CALM      29.80F
GRAND RAPIDS   CLOUDY    18   5  57 SW3       29.81F
CRANE LAKE     CLOUDY     7   1  78 SW5       29.83F WCI  -2
ORR            PTSUNNY    7   0  72 CALM      29.76F
COOK           CLOUDY     7   1  78 CALM      29.79F
WALKER         CLOUDY    10   6  81 SW3       29.80F
$$
MNZ012-019>021-037-151900-
   Northeast Minnesota

CITY           SKY/WX    TMP DP  RH WIND       PRES   REMARKS
DULUTH         PTSUNNY    9   3  77 NW9       29.79F WCI  -4
6HR MIN TEMP:   8; 6HR MAX TEMP:  11; 6HR PCP: TRACE;

ELY            PTSUNNY    9   1  72 W7        29.77F WCI  -3
HIBBING        CLOUDY     8   1  73 CALM      29.79F
EVELETH        PTSUNNY    6  -2  68 W5        29.80F WCI  -2
DULUTH HARBOR  CLOUDY    16   7  67 W7        29.87F WCI   6
TWO HARBORS    SUNNY     19   7  58 W6        29.79F WCI  11
SILVER BAY     SUNNY     16   3  57 W5        29.78F WCI   9
GRAND MARAIS     N/A     14   2  58 MISG      29.82F
G MARAIS ARPRT MOSUNNY    7  -6  56 NW6       29.71F WCI  -3
$$
MNZ029>031-032-039>041-046>048-054>057-064-151900-
   West Central Minnesota

CITY           SKY/WX    TMP DP  RH WIND       PRES   REMARKS
FERGUS FALLS   CLOUDY    23  19  86 S7        29.83F WCI  15
WHEATON        CLOUDY    27  23  86 SE9       29.82F WCI  17
MORRIS         CLOUDY    27  23  86 SE8       29.80F WCI  18
ALEXANDRIA     CLOUDY    23  16  74 SE3       29.79F
ELBOW LAKE     CLOUDY    24  21  88 S6        29.81S WCI  17
WADENA         CLOUDY    18  12  79 CALM      29.80F
GLENWOOD       FLURRIES  25  19  80 SE3       29.80F
APPLETON       PTSUNNY   28  25  86 SE6       29.82F WCI  22
BENSON         PTSUNNY   28  25  86 S7        29.83F WCI  21
ORTONVILLE     CLOUDY    28  25  86 S7        29.80F WCI  21
MADISON        CLOUDY    34  34 100 SE3       29.81F
WILLMAR        FLURRIES  28  25  86 SE5       29.83F WCI  23
$$
MNZ033>034-036-042>043-049>051-058-059-151900-
   Central Minnesota

CITY           SKY/WX    TMP DP  RH WIND       PRES   REMARKS
ST CLOUD       CLOUDY    22  15  75 CALM      29.84F
6HR MIN TEMP:  16; 6HR MAX TEMP:  22;

SAUK CENTRE    FAIR      21  14  72 CALM      29.81F
PAYNESVILLE    CLOUDY    25  20  81 CALM      29.82F
AITKIN         MOSUNNY   16   9  73 SW3       29.80F
PINE RIVER     CLOUDY    14   9  79 SW3       29.84F
BRAINERD       CLOUDY    18  10  71 SW6       29.81F WCI  10
STAPLES        CLOUDY    18  10  73 CALM      29.81F
LITTLE FALLS   CLOUDY    19  10  68 CALM      29.83F
LITCHFIELD     MIX PCPN  28  23  80 CALM      29.83F
BUFFALO        CLOUDY    23  16  76 CALM      29.86F
MAPLE LAKE     CLOUDY    24  19  80 CALM      29.85F
HUTCHINSON     LGT SNOW  27  25  94 CALM      29.84F
$$
MNZ037-044-045-052-053-151900-
   East Central Minnesota

CITY           SKY/WX    TMP DP  RH WIND       PRES   REMARKS
PRINCETON      CLOUDY    21  12  68 CALM      29.84F
MORA           MOSUNNY   19  10  68 CALM      29.85F
CAMBRIDGE      CLOUDY    19  10  68 CALM      29.85F
RUSH CITY      PTSUNNY   18  10  68 CALM      29.86F
MOOSE LAKE     CLOUDY    18   9  68 CALM      29.81F
HINCKLEY       CLOUDY    19  10  68 W3        29.84F
CLOQUET        FLURRIES  12   3  67 W6        29.81F WCI   3
MCGREGOR       PTSUNNY   19  10  68 CALM      29.81F
$$
MNZ071>073-080-081-089-090-097-098-151900-
   Southwest Minnesota

CITY           SKY/WX    TMP DP  RH WIND       PRES   REMARKS
MONTEVIDEO     PTSUNNY   30  28  93 S5        29.81F WCI  25
GRANITE FALLS  CLOUDY    34  31  90 SE3       29.83F
CANBY          CLOUDY    36  30  77 SW7       29.80F
MARSHALL       CLOUDY    36  28  73 W9        29.82F
REDWOOD FALLS  CLOUDY    34  30  85 VRB3      29.82F
OLIVIA         CLOUDY    30  27  86 SE5       29.82F WCI  25
PIPESTONE      SUNNY     34  27  75 W8        29.80F WCI  27
WINDOM           N/A     37  23  56 SW9       29.83F
WORTHINGTON    CLOUDY    35  28  75 SW13      29.83F WCI  26
JACKSON        MOSUNNY   34  28  80 MISG      29.84F
SLAYTON        CLOUDY    33  29  83 W9        29.83F WCI  26
$$
MNZ065>067-074>077-082>085-091>093-151900-
   South Central Minnesota

CITY           SKY/WX    TMP DP  RH WIND       PRES   REMARKS
MANKATO        FLURRIES  31  27  85 NE5       29.86F WCI  26
NEW ULM        CLOUDY    30  28  93 NE3       29.84F
ST JAMES       CLOUDY    36  28  75 W7        29.86F
FAIRMONT       CLOUDY    35  28  75 W8        29.86F WCI  29
GLENCOE        MIX PCPN  26  26 100 CALM      29.84F
FARIBAULT      CLOUDY    28  23  80 CALM      29.86S
OWATONNA       CLOUDY    30  27  86 CALM      29.85F
WASECA         CLOUDY    32  30  93 W5        29.87S WCI  27
ALBERT LEA     CLOUDY    32  27  80 W7        29.85S WCI  26
$$
MNZ078>079-086>088-094>096-151900-
   Southeast Minnesota

CITY           SKY/WX    TMP DP  RH WIND       PRES   REMARKS
ROCHESTER      CLOUDY    29  26  89 W9        29.84F WCI  20
6HR MIN TEMP:  22; 6HR MAX TEMP:  29; 6HR PCP:  0.02;

RED WING       CLOUDY    28  18  64 W6        29.86F WCI  22
STANTON        CLOUDY    29  23  78 SW3       29.85S
DODGE CENTER   CLOUDY    28  27  93 W7        29.84S WCI  21
WINONA           N/A     30  23  74 NW6       29.87F WCI  24
AUSTIN         MIX PCPN  30  28  93 W8        29.85F WCI  23
PRESTON        CLOUDY    29  26  88 W8        29.85F WCI  21
$$
ABBREVIATIONS USED IN REMARKS
   TC - TEMPERATURES IN CELSIUS
  WCI - WIND CHILL INDEX
   HX - HEAT INDEX
  VSB - VISIBILITY
$$




USA.gov is the U.S. government's official web portal to all federal, state and local government web resources and services.